Tracking 30685 objects as of 17-Jun-2025
HD Live streaming from Space Station
objects crossing your sky now

COSMOS 1275 DEB

Track COSMOS 1275 DEB now!
10-day predictions


NORAD ID: 42212
Int'l Code: 1981-053UC
Perigee: 919.7 km
Apogee: 1,138.4 km
Inclination: 83.0 °
Period: 105.6 minutes
Semi major axis: 7400 km
RCS: Unknown
Launch date: June 4, 1981
Source: Commonwealth of Independent States (former USSR) (CIS)
Launch site: PLESETSK MISSILE AND SPACE COMPLEX (PKMTR)

Note: This is SATELLITE DEBRIS
Your satellite tracking list
Your tracking list is empty




NASA's NSSDC Master Catalog

Two Line Element Set (TLE):
1 42212U 81053UC  25167.45243267  .00000833  00000-0  95875-3 0  9993
2 42212  83.0499  47.8295 0147777 203.5899 275.6699 13.63802254574138
Source of the keplerian elements: AFSPC